Crane Lake, MN

7:10 AM CST on December 06, 2019 (GMT -0600)
Crane Lake

Weather History for KCDD - September, 2019

Change the Weather History Date:

Sunday, September 15, 2019

  Actual Average Record
Temperature  
Mean Temperature 60 °F -  
Max Temperature 73 °F 65 °F 84 °F (2006)
Min Temperature 46 °F 45 °F 21 °F (2011)
Degree Days  
Heating Degree Days 6    
Growing Degree Days 10 (Base 50)    
Moisture  
Dew Point 55 °F    
Average Humidity 90    
Maximum Humidity 100    
Minimum Humidity 60    
Precipitation  
Precipitation 0.00 in - - ()
Sea Level Pressure  
Sea Level Pressure 29.98 in    
Wind  
Wind Speed 1 mph (South)    
Max Wind Speed 8 mph    
Max Gust Speed -    
Visibility 10 miles    
Events      
Averages and records for this station are not official NWS values.
T = Trace of Precipitation, MM = Missing Value Source: NWS Daily Summary

Daily Weather History Graph

Daily Weather History Graph

Search for Another Location

Airport or City:

Astronomy

Sep. 15, 2019 Rise Set
Actual Time 6:46 AM CDT 7:22 PM CDT
Civil Twilight 6:15 AM CDT 7:54 PM CDT
Nautical Twilight 5:37 AM CDT 8:31 PM CDT
Astronomical Twilight 4:58 AM CDT 9:10 PM CDT
Moon 8:26 PM CDT (9/15) 7:59 AM CDT (9/15)
Length of Visible Light 13h 38m
Length of Day
12h 36m
Full, 98% of the Moon is Illuminated
Sep 15
Full
Sep 21
Last Quarter
Sep 28
New
Oct 5
First Quarter
Oct 13
Full

Hourly Weather History & Observations

Time (CDT) Temp. Dew Point Humidity Pressure Visibility Wind Dir Wind Speed Gust Speed Precip Events Conditions
12:05 AM 48.2 °F 48.2 °F 100% 30.00 in 10.0 mi Calm Calm - N/A   Overcast
12:24 AM 48.2 °F 48.2 °F 100% 29.99 in 10.0 mi Calm Calm - N/A   Overcast
12:44 AM 50.0 °F 50.0 °F 100% 30.00 in 10.0 mi Calm Calm - N/A   Overcast
1:04 AM 51.8 °F 51.8 °F 100% 30.00 in 10.0 mi Calm Calm - N/A   Overcast
1:24 AM 51.8 °F 51.8 °F 100% 29.99 in 10.0 mi Calm Calm - N/A   Overcast
1:44 AM 51.8 °F 51.8 °F 100% 29.99 in 10.0 mi Calm Calm - N/A   Overcast
2:04 AM 50.0 °F 50.0 °F 100% 29.99 in 10.0 mi Calm Calm - N/A   Overcast
2:24 AM 48.2 °F 48.2 °F 100% 29.99 in 10.0 mi Calm Calm - N/A   Scattered Clouds
2:44 AM 48.2 °F 48.2 °F 100% 29.98 in 10.0 mi Calm Calm - N/A   Mostly Cloudy
3:05 AM 48.2 °F 48.2 °F 100% 29.98 in 4.0 mi Calm Calm - N/A   Mostly Cloudy
3:24 AM 46.4 °F 46.4 °F 100% 29.98 in 7.0 mi Calm Calm - N/A   Clear
3:44 AM 46.4 °F 46.4 °F 100% 29.98 in 7.0 mi Calm Calm - N/A   Mostly Cloudy
4:04 AM 48.2 °F 46.4 °F 93% 29.97 in 10.0 mi Calm Calm - N/A   Overcast
4:44 AM 48.2 °F 48.2 °F 100% 29.97 in 10.0 mi Calm Calm - N/A   Overcast
5:04 AM 50.0 °F 50.0 °F 100% 29.96 in 10.0 mi Calm Calm - N/A   Overcast
5:24 AM 50.0 °F 50.0 °F 100% 29.97 in 7.0 mi Calm Calm - N/A   Overcast
5:44 AM 50.0 °F 50.0 °F 100% 29.97 in 7.0 mi Calm Calm - N/A   Overcast
6:05 AM 51.8 °F 50.0 °F 94% 29.97 in 10.0 mi Calm Calm - N/A   Overcast
6:24 AM 50.0 °F 50.0 °F 100% 29.98 in 10.0 mi Calm Calm - N/A   Overcast
6:45 AM 51.8 °F 51.8 °F 100% 29.98 in 10.0 mi Calm Calm - N/A   Overcast
7:04 AM 51.8 °F 51.8 °F 100% 29.98 in 10.0 mi Calm Calm - N/A   Overcast
7:24 AM 51.8 °F 51.8 °F 100% 29.99 in 10.0 mi Calm Calm - N/A   Overcast
7:44 AM 53.6 °F 53.6 °F 100% 29.99 in 10.0 mi Calm Calm - N/A   Overcast
8:04 AM 53.6 °F 53.6 °F 100% 29.98 in 10.0 mi Calm Calm - N/A   Overcast
8:24 AM 55.4 °F 53.6 °F 94% 29.99 in 10.0 mi Calm Calm - N/A   Overcast
8:43 AM 55.4 °F 55.4 °F 100% 29.99 in 10.0 mi Calm Calm - N/A   Overcast
9:04 AM 57.2 °F 55.4 °F 94% 29.99 in 10.0 mi Calm Calm - N/A   Overcast
9:45 AM 57.2 °F 55.4 °F 94% 29.99 in 10.0 mi South 3.5 mph - N/A   Overcast
10:04 AM 59.0 °F 55.4 °F 88% 29.99 in 10.0 mi South 6.9 mph - N/A   Overcast
10:24 AM - - N/A% 30.00 in 10.0 mi South 5.8 mph - N/A   Overcast
10:44 AM 59.0 °F 57.2 °F 94% 30.00 in 10.0 mi South 5.8 mph - N/A   Unknown
11:04 AM 60.8 °F 57.2 °F 88% 30.00 in 10.0 mi South 5.8 mph - N/A   Overcast
11:24 AM 60.8 °F 57.2 °F 88% 30.00 in 10.0 mi South 5.8 mph - N/A   Overcast
11:44 AM 60.8 °F 57.2 °F 88% 30.00 in 10.0 mi North - - N/A   Overcast
12:04 PM 62.6 °F 57.2 °F 82% 30.00 in 10.0 mi South 3.5 mph - N/A   Overcast
12:24 PM 62.6 °F 59.0 °F 88% 29.99 in 10.0 mi South 3.5 mph - N/A   Mostly Cloudy
12:44 PM 64.4 °F 57.2 °F 77% 29.99 in 10.0 mi South 3.5 mph - N/A   Clear
1:04 PM 64.4 °F 59.0 °F 83% 29.99 in 10.0 mi South 3.5 mph - N/A   Clear
1:24 PM 66.2 °F 60.8 °F 83% 29.98 in 10.0 mi Calm Calm - N/A   Clear
1:44 PM 68.0 °F 60.8 °F 78% 29.99 in 10.0 mi SSE 3.5 mph - N/A   Clear
2:04 PM 69.8 °F 60.8 °F 73% 29.98 in 10.0 mi South 8.1 mph - N/A   Clear
2:24 PM 69.8 °F 60.8 °F 73% 29.97 in 10.0 mi Calm Calm - N/A   Clear
2:44 PM 69.8 °F 59.0 °F 68% 29.97 in 10.0 mi SSW 3.5 mph - N/A   Clear
3:04 PM 69.8 °F 57.2 °F 64% 29.97 in 10.0 mi South 3.5 mph - N/A   Clear
3:24 PM 71.6 °F 59.0 °F 64% 29.96 in 10.0 mi Calm Calm - N/A   Clear
3:44 PM 71.6 °F 57.2 °F 60% 29.96 in 10.0 mi South 3.5 mph - N/A   Clear
4:05 PM 71.6 °F 59.0 °F 64% 29.96 in 10.0 mi SSW 4.6 mph - N/A   Clear
4:24 PM 73.4 °F 59.0 °F 61% 29.96 in 10.0 mi SSW 3.5 mph - N/A   Clear
4:45 PM 73.4 °F 60.8 °F 65% 29.96 in 10.0 mi Calm Calm - N/A   Clear
5:24 PM 73.4 °F 60.8 °F 65% 29.96 in 10.0 mi SSW 3.5 mph - N/A   Clear
5:44 PM 73.4 °F 60.8 °F 65% 29.96 in 10.0 mi South 3.5 mph - N/A   Clear
6:04 PM 71.6 °F 60.8 °F 69% 29.96 in 10.0 mi Calm Calm - N/A   Clear
6:24 PM 68.0 °F 62.6 °F 83% 29.96 in 10.0 mi Calm Calm - N/A   Clear
6:44 PM 64.4 °F 60.8 °F 88% 29.96 in 10.0 mi Calm Calm - N/A   Clear
7:05 PM 62.6 °F 60.8 °F 94% 29.96 in 10.0 mi Calm Calm - N/A   Clear
7:44 PM 59.0 °F 57.2 °F 94% 29.97 in 10.0 mi Calm Calm - N/A   Clear
8:04 PM 57.2 °F 57.2 °F 100% 29.97 in 10.0 mi Calm Calm - N/A   Clear
8:24 PM 55.4 °F 55.4 °F 100% 29.98 in 10.0 mi Calm Calm - N/A   Clear
8:44 PM 55.4 °F 55.4 °F 100% 29.98 in 10.0 mi Calm Calm - N/A   Clear
9:04 PM 55.4 °F 53.6 °F 94% 29.98 in 10.0 mi Calm Calm - N/A   Clear
9:24 PM 53.6 °F 53.6 °F 100% 29.98 in 10.0 mi Calm Calm - N/A   Clear
9:45 PM 53.6 °F 53.6 °F 100% 29.99 in 10.0 mi Calm Calm - N/A   Clear
10:04 PM 53.6 °F 53.6 °F 100% 29.99 in 10.0 mi Calm Calm - N/A   Clear
10:24 PM 51.8 °F 51.8 °F 100% 30.00 in 10.0 mi Calm Calm - N/A   Clear
10:44 PM 51.8 °F 51.8 °F 100% 30.00 in 10.0 mi Calm Calm - N/A   Clear
11:04 PM 51.8 °F 51.8 °F 100% 30.00 in 10.0 mi Calm Calm - N/A   Clear
11:24 PM 51.8 °F 51.8 °F 100% 30.00 in 10.0 mi Calm Calm - N/A   Clear
11:44 PM 51.8 °F 51.8 °F 100% 30.00 in 10.0 mi South 3.5 mph - N/A   Clear